Time,TemperatureF,DewpointF,PressureIn,WindDirection,WindDirectionDegrees,WindSpeedMPH,WindSpeedGustMPH,Humidity,HourlyPrecipIn,Conditions,Clouds,dailyrainin,SoftwareType,DateUTC
2013-05-27 00:01:00,74.7,67.8,29.82,SSE,161,5.0,6.0,79,0.00,,,0.00,Wunderground v.1.15,2013-05-27 05:01:00,
2013-05-27 00:07:00,74.6,67.7,29.81,SSE,159,5.0,5.0,79,0.00,,,0.00,Wunderground v.1.15,2013-05-27 05:07:00,
2013-05-27 00:12:00,74.4,67.5,29.81,SSE,167,5.0,5.0,79,0.00,,,0.00,Wunderground v.1.15,2013-05-27 05:12:00,
2013-05-27 00:18:00,74.2,67.3,29.81,SSE,152,5.0,7.0,79,0.00,,,0.00,Wunderground v.1.15,2013-05-27 05:18:00,
2013-05-27 00:24:00,74.1,67.2,29.81,SE,136,1.0,3.0,79,0.00,,,0.00,Wunderground v.1.15,2013-05-27 05:24:00,
2013-05-27 00:30:00,74.0,67.1,29.81,NE,42,2.0,5.0,79,0.00,,,0.00,Wunderground v.1.15,2013-05-27 05:30:00,
2013-05-27 00:35:00,73.9,66.6,29.81,South,178,3.0,4.0,78,0.00,,,0.00,Wunderground v.1.15,2013-05-27 05:35:00,
2013-05-27 00:42:00,73.9,66.6,29.81,East,90,2.0,7.0,78,0.00,,,0.00,Wunderground v.1.15,2013-05-27 05:42:00,
2013-05-27 00:48:00,73.8,66.5,29.81,NW,311,2.0,4.0,78,0.00,,,0.00,Wunderground v.1.15,2013-05-27 05:48:00,
2013-05-27 00:53:00,73.7,66.4,29.81,East,81,2.0,3.0,78,0.00,,,0.00,Wunderground v.1.15,2013-05-27 05:53:00,
2013-05-27 00:59:00,73.6,66.3,29.80,SE,139,2.0,5.0,78,0.00,,,0.00,Wunderground v.1.15,2013-05-27 05:59:00,
2013-05-27 01:05:00,73.6,66.3,29.81,West,276,3.0,5.0,78,0.00,,,0.00,Wunderground v.1.15,2013-05-27 06:05:00,
2013-05-27 01:11:00,73.5,66.2,29.80,ENE,74,5.0,6.0,78,0.00,,,0.00,Wunderground v.1.15,2013-05-27 06:11:00,
2013-05-27 01:16:00,73.5,66.2,29.80,SSE,151,2.0,4.0,78,0.00,,,0.00,Wunderground v.1.15,2013-05-27 06:16:00,
2013-05-27 01:22:00,73.4,65.7,29.81,South,186,1.0,7.0,77,0.00,,,0.00,Wunderground v.1.15,2013-05-27 06:22:00,
2013-05-27 01:28:00,73.4,66.1,29.81,ESE,115,2.0,6.0,78,0.00,,,0.00,Wunderground v.1.15,2013-05-27 06:28:00,
2013-05-27 01:34:00,73.3,66.0,29.82,SSW,213,4.0,4.0,78,0.00,,,0.00,Wunderground v.1.15,2013-05-27 06:34:00,
2013-05-27 01:39:00,73.3,66.0,29.83,South,187,2.0,4.0,78,0.00,,,0.00,Wunderground v.1.15,2013-05-27 06:39:00,
2013-05-27 01:46:00,73.2,65.9,29.83,SSE,148,1.0,3.0,78,0.00,,,0.00,Wunderground v.1.15,2013-05-27 06:46:00,
2013-05-27 01:52:00,73.0,66.1,29.83,ESE,105,3.0,3.0,79,0.00,,,0.00,Wunderground v.1.15,2013-05-27 06:52:00,
2013-05-27 01:57:00,72.7,65.8,29.83,SSE,158,3.0,7.0,79,0.00,,,0.00,Wunderground v.1.15,2013-05-27 06:57:00,
2013-05-27 02:03:00,72.6,65.7,29.83,West,274,1.0,2.0,79,0.00,,,0.00,Wunderground v.1.15,2013-05-27 07:03:00,
2013-05-27 02:08:00,72.4,65.9,29.83,SSE,155,1.0,4.0,80,0.00,,,0.00,Wunderground v.1.15,2013-05-27 07:08:00,
2013-05-27 02:13:00,72.4,65.9,29.83,South,169,2.0,3.0,80,0.00,,,0.00,Wunderground v.1.15,2013-05-27 07:13:00,
2013-05-27 02:18:00,72.3,65.8,29.83,SE,132,4.0,5.0,80,0.00,,,0.00,Wunderground v.1.15,2013-05-27 07:18:00,
2013-05-27 02:23:00,72.3,65.8,29.82,NE,37,5.0,7.0,80,0.00,,,0.00,Wunderground v.1.15,2013-05-27 07:23:00,
2013-05-27 02:28:00,72.1,65.6,29.82,East,96,3.0,8.0,80,0.00,,,0.00,Wunderground v.1.15,2013-05-27 07:28:00,
2013-05-27 02:33:00,72.0,65.8,29.82,SSE,167,3.0,4.0,81,0.00,,,0.00,Wunderground v.1.15,2013-05-27 07:33:00,
2013-05-27 02:38:00,71.9,65.8,29.82,NE,53,4.0,8.0,81,0.00,,,0.00,Wunderground v.1.15,2013-05-27 07:38:00,
2013-05-27 02:43:00,71.8,65.7,29.82,SE,136,1.0,3.0,81,0.00,,,0.00,Wunderground v.1.15,2013-05-27 07:43:00,
2013-05-27 02:48:00,71.7,65.6,29.82,ESE,106,5.0,6.0,81,0.00,,,0.00,Wunderground v.1.15,2013-05-27 07:48:00,
2013-05-27 02:54:00,71.7,65.6,29.82,SSE,154,2.0,3.0,81,0.00,,,0.00,Wunderground v.1.15,2013-05-27 07:54:00,
2013-05-27 02:59:00,71.7,65.6,29.81,South,180,3.0,10.0,81,0.00,,,0.00,Wunderground v.1.15,2013-05-27 07:59:00,
2013-05-27 03:04:00,71.7,65.6,29.80,South,190,5.0,5.0,81,0.00,,,0.00,Wunderground v.1.15,2013-05-27 08:04:00,
2013-05-27 03:09:00,71.7,65.2,29.80,SSE,156,4.0,9.0,80,0.00,,,0.00,Wunderground v.1.15,2013-05-27 08:09:00,
2013-05-27 03:14:00,71.7,65.2,29.80,SW,219,2.0,4.0,80,0.00,,,0.00,Wunderground v.1.15,2013-05-27 08:14:00,
2013-05-27 03:18:00,71.7,65.2,29.80,South,169,6.0,9.0,80,0.00,,,0.00,Wunderground v.1.15,2013-05-27 08:18:00,
2013-05-27 03:24:00,71.7,65.2,29.79,South,169,4.0,7.0,80,0.00,,,0.00,Wunderground v.1.15,2013-05-27 08:24:00,
2013-05-27 03:29:00,71.6,65.1,29.78,SSE,152,5.0,11.0,80,0.00,,,0.00,Wunderground v.1.15,2013-05-27 08:29:00,
2013-05-27 03:34:00,71.6,65.1,29.78,SSE,159,7.0,9.0,80,0.00,,,0.00,Wunderground v.1.15,2013-05-27 08:34:00,
2013-05-27 03:38:00,71.5,65.0,29.77,East,94,2.0,11.0,80,0.00,,,0.00,Wunderground v.1.15,2013-05-27 08:38:00,
2013-05-27 03:43:00,71.5,65.0,29.77,East,97,2.0,4.0,80,0.00,,,0.00,Wunderground v.1.15,2013-05-27 08:43:00,
2013-05-27 03:49:00,71.4,64.9,29.77,SSE,150,2.0,11.0,80,0.00,,,0.00,Wunderground v.1.15,2013-05-27 08:49:00,
2013-05-27 03:54:00,71.4,64.9,29.77,SSE,152,4.0,5.0,80,0.00,,,0.00,Wunderground v.1.15,2013-05-27 08:54:00,
2013-05-27 03:59:00,71.3,64.8,29.77,SSE,157,8.0,11.0,80,0.00,,,0.00,Wunderground v.1.15,2013-05-27 08:59:00,
2013-05-27 04:04:00,71.3,64.8,29.77,SE,145,5.0,7.0,80,0.00,,,0.00,Wunderground v.1.15,2013-05-27 09:04:00,
2013-05-27 04:09:00,71.2,65.1,29.76,SSE,163,3.0,11.0,81,0.00,,,0.00,Wunderground v.1.15,2013-05-27 09:09:00,
2013-05-27 04:14:00,71.2,65.1,29.76,ESE,111,3.0,5.0,81,0.00,,,0.00,Wunderground v.1.15,2013-05-27 09:14:00,
2013-05-27 04:19:00,71.2,64.7,29.76,SE,146,2.0,8.0,80,0.00,,,0.00,Wunderground v.1.15,2013-05-27 09:19:00,
2013-05-27 04:24:00,71.1,64.6,29.76,SE,128,5.0,5.0,80,0.00,,,0.00,Wunderground v.1.15,2013-05-27 09:24:00,
2013-05-27 04:29:00,71.2,65.1,29.76,SE,126,4.0,8.0,81,0.00,,,0.00,Wunderground v.1.15,2013-05-27 09:29:00,
2013-05-27 04:34:00,71.2,65.1,29.76,NE,56,3.0,5.0,81,0.00,,,0.00,Wunderground v.1.15,2013-05-27 09:34:00,
2013-05-27 04:39:00,71.2,64.7,29.75,SE,127,5.0,9.0,80,0.00,,,0.00,Wunderground v.1.15,2013-05-27 09:39:00,
2013-05-27 04:44:00,71.2,65.1,29.75,SSE,160,5.0,8.0,81,0.00,,,0.00,Wunderground v.1.15,2013-05-27 09:44:00,
2013-05-27 04:49:00,71.1,65.0,29.75,ESE,119,4.0,9.0,81,0.00,,,0.00,Wunderground v.1.15,2013-05-27 09:49:00,
2013-05-27 04:54:00,71.1,65.0,29.75,SE,126,3.0,4.0,81,0.00,,,0.00,Wunderground v.1.15,2013-05-27 09:54:00,
2013-05-27 04:59:00,71.1,65.0,29.75,SSE,153,2.0,9.0,81,0.00,,,0.00,Wunderground v.1.15,2013-05-27 09:59:00,
2013-05-27 05:04:00,71.1,65.0,29.75,SE,142,5.0,7.0,81,0.00,,,0.00,Wunderground v.1.15,2013-05-27 10:04:00,
2013-05-27 05:09:00,71.1,65.0,29.75,SSE,159,8.0,13.0,81,0.00,,,0.00,Wunderground v.1.15,2013-05-27 10:09:00,
2013-05-27 05:14:00,71.1,65.0,29.74,South,180,3.0,4.0,81,0.00,,,0.00,Wunderground v.1.15,2013-05-27 10:14:00,
2013-05-27 05:19:00,71.0,64.9,29.74,ESE,102,4.0,11.0,81,0.00,,,0.00,Wunderground v.1.15,2013-05-27 10:19:00,
2013-05-27 05:24:00,71.0,64.9,29.73,East,81,1.0,5.0,81,0.00,,,0.00,Wunderground v.1.15,2013-05-27 10:24:00,
2013-05-27 05:29:00,71.0,64.9,29.73,WSW,252,2.0,9.0,81,0.00,,,0.00,Wunderground v.1.15,2013-05-27 10:29:00,
2013-05-27 05:34:00,70.9,64.8,29.74,SE,144,4.0,6.0,81,0.00,,,0.00,Wunderground v.1.15,2013-05-27 10:34:00,
2013-05-27 05:39:00,70.8,65.0,29.73,WSW,254,1.0,7.0,82,0.00,,,0.00,Wunderground v.1.15,2013-05-27 10:39:00,
2013-05-27 05:44:00,70.8,65.0,29.73,SE,140,1.0,3.0,82,0.00,,,0.00,Wunderground v.1.15,2013-05-27 10:44:00,
2013-05-27 05:49:00,70.8,65.0,29.73,SSE,147,3.0,7.0,82,0.00,,,0.00,Wunderground v.1.15,2013-05-27 10:49:00,
2013-05-27 05:54:00,70.9,65.1,29.73,ESE,119,3.0,4.0,82,0.00,,,0.00,Wunderground v.1.15,2013-05-27 10:54:00,
2013-05-27 05:59:00,70.9,65.1,29.73,ENE,71,2.0,7.0,82,0.00,,,0.00,Wunderground v.1.15,2013-05-27 10:59:00,
2013-05-27 06:04:00,70.9,65.1,29.73,South,169,1.0,3.0,82,0.00,,,0.00,Wunderground v.1.15,2013-05-27 11:04:00,
2013-05-27 06:09:00,70.8,65.0,29.73,SSE,157,4.0,8.0,82,0.00,,,0.00,Wunderground v.1.15,2013-05-27 11:09:00,
2013-05-27 06:14:00,70.7,64.9,29.73,NE,40,2.0,4.0,82,0.00,,,0.00,Wunderground v.1.15,2013-05-27 11:14:00,
2013-05-27 06:19:00,70.7,64.9,29.73,ENE,63,3.0,5.0,82,0.00,,,0.00,Wunderground v.1.15,2013-05-27 11:19:00,
2013-05-27 06:24:00,70.6,65.2,29.72,SW,226,4.0,6.0,83,0.00,,,0.00,Wunderground v.1.15,2013-05-27 11:24:00,
2013-05-27 06:29:00,70.6,65.2,29.73,ESE,121,1.0,7.0,83,0.00,,,0.00,Wunderground v.1.15,2013-05-27 11:29:00,
2013-05-27 06:34:00,70.7,65.3,29.72,SSE,165,4.0,5.0,83,0.00,,,0.00,Wunderground v.1.15,2013-05-27 11:34:00,
2013-05-27 06:39:00,70.7,65.3,29.72,SW,227,3.0,7.0,83,0.00,,,0.00,Wunderground v.1.15,2013-05-27 11:39:00,
2013-05-27 06:44:00,70.7,65.3,29.72,SE,142,1.0,4.0,83,0.00,,,0.00,Wunderground v.1.15,2013-05-27 11:44:00,
2013-05-27 06:49:00,70.7,65.3,29.73,South,169,3.0,8.0,83,0.00,,,0.00,Wunderground v.1.15,2013-05-27 11:49:00,
2013-05-27 06:54:00,70.8,65.4,29.75,ESE,105,1.0,3.0,83,0.00,,,0.00,Wunderground v.1.15,2013-05-27 11:54:00,
2013-05-27 06:59:00,70.8,65.4,29.77,NW,313,0.0,4.0,83,0.00,,,0.00,Wunderground v.1.15,2013-05-27 11:59:00,
2013-05-27 07:04:00,70.8,65.4,29.77,NW,311,0.0,1.0,83,0.00,,,0.00,Wunderground v.1.15,2013-05-27 12:04:00,
2013-05-27 07:09:00,70.9,65.1,29.77,NNE,30,3.0,4.0,82,0.00,,,0.00,Wunderground v.1.15,2013-05-27 12:09:00,
2013-05-27 07:14:00,70.4,62.5,29.77,ENE,59,1.0,2.0,76,0.00,,,0.00,Wunderground v.1.15,2013-05-27 12:14:00,
2013-05-27 07:19:00,69.7,61.8,29.76,NNE,33,2.0,7.0,76,0.00,,,0.00,Wunderground v.1.15,2013-05-27 12:19:00,
2013-05-27 07:24:00,69.1,60.8,29.76,East,89,7.0,11.0,75,0.00,,,0.00,Wunderground v.1.15,2013-05-27 12:24:00,
2013-05-27 07:29:00,68.4,60.5,29.76,NE,44,4.0,11.0,76,0.00,,,0.00,Wunderground v.1.15,2013-05-27 12:29:00,
2013-05-27 07:34:00,67.9,60.4,29.76,NNE,20,2.0,4.0,77,0.00,,,0.00,Wunderground v.1.15,2013-05-27 12:34:00,
2013-05-27 07:39:00,67.3,60.9,29.79,NNE,22,1.0,5.0,80,0.00,,,0.00,Wunderground v.1.15,2013-05-27 12:39:00,
2013-05-27 07:44:00,66.7,62.0,29.77,WNW,298,1.0,6.0,85,1.10,,,0.04,Wunderground v.1.15,2013-05-27 12:44:00,
2013-05-27 07:49:00,65.5,61.5,29.74,ENE,61,3.0,7.0,87,0.64,,,0.11,Wunderground v.1.15,2013-05-27 12:49:00,
2013-05-27 07:54:00,64.4,61.4,29.75,North,10,2.0,3.0,90,0.29,,,0.13,Wunderground v.1.15,2013-05-27 12:54:00,
2013-05-27 07:59:00,63.9,61.2,29.74,ENE,57,2.0,5.0,91,0.47,,,0.15,Wunderground v.1.15,2013-05-27 12:59:00,
2013-05-27 08:04:00,63.5,61.1,29.75,NNE,18,0.0,2.0,92,0.33,,,0.17,Wunderground v.1.15,2013-05-27 13:04:00,
2013-05-27 08:09:00,63.3,61.2,29.76,WSW,240,2.0,4.0,93,0.21,,,0.20,Wunderground v.1.15,2013-05-27 13:09:00,
2013-05-27 08:14:00,63.1,61.0,29.76,SSE,151,3.0,5.0,93,0.59,,,0.25,Wunderground v.1.15,2013-05-27 13:14:00,
2013-05-27 08:19:00,63.1,61.3,29.76,ESE,103,2.0,8.0,94,0.42,,,0.29,Wunderground v.1.15,2013-05-27 13:19:00,
2013-05-27 08:24:00,63.0,61.2,29.74,SSE,150,3.0,4.0,94,0.45,,,0.34,Wunderground v.1.15,2013-05-27 13:24:00,
2013-05-27 08:29:00,63.1,61.6,29.74,East,90,5.0,7.0,95,0.22,,,0.37,Wunderground v.1.15,2013-05-27 13:29:00,
2013-05-27 08:34:00,63.2,61.7,29.79,West,267,0.0,3.0,95,0.23,,,0.40,Wunderground v.1.15,2013-05-27 13:34:00,
2013-05-27 08:39:00,63.3,61.8,29.81,NW,321,1.0,3.0,95,2.88,,,0.47,Wunderground v.1.15,2013-05-27 13:39:00,
2013-05-27 08:44:00,63.2,61.7,29.79,North,5,1.0,1.0,95,4.11,,,0.63,Wunderground v.1.15,2013-05-27 13:44:00,
2013-05-27 08:49:00,63.1,61.6,29.78,North,5,1.0,4.0,95,1.98,,,0.83,Wunderground v.1.15,2013-05-27 13:49:00,
2013-05-27 08:54:00,63.1,61.6,29.80,North,5,1.0,2.0,95,0.52,,,0.93,Wunderground v.1.15,2013-05-27 13:54:00,
2013-05-27 08:59:00,63.0,61.5,29.79,North,9,4.0,4.0,95,0.58,,,0.98,Wunderground v.1.15,2013-05-27 13:59:00,
2013-05-27 09:04:00,62.9,61.4,29.81,North,9,0.0,1.0,95,0.34,,,1.00,Wunderground v.1.15,2013-05-27 14:04:00,
2013-05-27 09:09:00,62.9,61.4,29.79,North,9,1.0,2.0,95,0.18,,,1.02,Wunderground v.1.15,2013-05-27 14:09:00,
2013-05-27 09:14:00,62.8,61.3,29.77,SSW,207,2.0,5.0,95,0.15,,,1.04,Wunderground v.1.15,2013-05-27 14:14:00,
2013-05-27 09:19:00,62.8,61.6,29.77,ENE,78,1.0,8.0,96,0.13,,,1.05,Wunderground v.1.15,2013-05-27 14:19:00,
2013-05-27 09:24:00,62.7,61.5,29.78,East,87,5.0,5.0,96,1.32,,,1.11,Wunderground v.1.15,2013-05-27 14:24:00,
2013-05-27 09:29:00,62.7,61.5,29.78,NNE,24,2.0,7.0,96,0.43,,,1.15,Wunderground v.1.15,2013-05-27 14:29:00,
2013-05-27 09:34:00,62.7,61.5,29.81,NW,314,1.0,2.0,96,0.11,,,1.16,Wunderground v.1.15,2013-05-27 14:34:00,
2013-05-27 09:39:00,62.8,61.6,29.83,NW,314,1.0,2.0,96,0.29,,,1.18,Wunderground v.1.15,2013-05-27 14:39:00,
2013-05-27 09:44:00,62.9,61.7,29.80,NW,315,1.0,2.0,96,1.68,,,1.25,Wunderground v.1.15,2013-05-27 14:44:00,
2013-05-27 09:49:00,62.9,61.7,29.81,North,355,1.0,3.0,96,0.41,,,1.40,Wunderground v.1.15,2013-05-27 14:49:00,
2013-05-27 09:54:00,62.9,61.7,29.81,SE,142,3.0,3.0,96,0.67,,,1.47,Wunderground v.1.15,2013-05-27 14:54:00,
2013-05-27 09:59:00,62.9,61.7,29.80,NE,52,1.0,5.0,96,0.40,,,1.51,Wunderground v.1.15,2013-05-27 14:59:00,
2013-05-27 10:04:00,62.9,61.7,29.84,NE,40,0.0,1.0,96,0.12,,,1.52,Wunderground v.1.15,2013-05-27 15:04:00,
2013-05-27 10:09:00,63.0,62.1,29.82,NE,40,1.0,2.0,97,0.10,,,1.52,Wunderground v.1.15,2013-05-27 15:09:00,
2013-05-27 10:14:00,63.1,62.2,29.83,NNE,30,1.0,1.0,97,0.09,,,1.53,Wunderground v.1.15,2013-05-27 15:14:00,
2013-05-27 10:19:00,63.2,62.3,29.81,NE,36,1.0,4.0,97,0.07,,,1.54,Wunderground v.1.15,2013-05-27 15:19:00,
2013-05-27 10:24:00,63.2,62.3,29.81,NE,36,3.0,3.0,97,0.20,,,1.55,Wunderground v.1.15,2013-05-27 15:24:00,
2013-05-27 10:29:00,63.3,62.4,29.81,NE,39,2.0,4.0,97,0.55,,,1.59,Wunderground v.1.15,2013-05-27 15:29:00,
2013-05-27 10:34:00,63.2,62.3,29.80,NE,34,2.0,3.0,97,0.33,,,1.63,Wunderground v.1.15,2013-05-27 15:34:00,
2013-05-27 10:39:00,63.1,62.2,29.82,NNE,31,0.0,5.0,97,0.32,,,1.66,Wunderground v.1.15,2013-05-27 15:39:00,
2013-05-27 10:44:00,63.1,62.2,29.81,NE,56,3.0,4.0,97,0.41,,,1.68,Wunderground v.1.15,2013-05-27 15:44:00,
2013-05-27 10:49:00,62.9,61.7,29.81,NE,46,4.0,6.0,96,0.33,,,1.71,Wunderground v.1.15,2013-05-27 15:49:00,
2013-05-27 10:54:00,62.7,61.5,29.82,North,360,2.0,3.0,96,0.93,,,1.75,Wunderground v.1.15,2013-05-27 15:54:00,
2013-05-27 10:59:00,62.4,61.2,29.80,SSW,202,4.0,12.0,96,0.63,,,1.79,Wunderground v.1.15,2013-05-27 15:59:00,
2013-05-27 11:04:00,62.2,61.0,29.82,ENE,59,3.0,4.0,96,0.76,,,1.86,Wunderground v.1.15,2013-05-27 16:04:00,
2013-05-27 11:09:00,62.1,60.9,29.82,NE,36,1.0,5.0,96,0.35,,,1.90,Wunderground v.1.15,2013-05-27 16:09:00,
2013-05-27 11:14:00,62.0,60.8,29.80,West,279,1.0,2.0,96,0.74,,,1.98,Wunderground v.1.15,2013-05-27 16:14:00,
2013-05-27 11:19:00,62.0,60.8,29.80,East,85,6.0,6.0,96,0.24,,,2.00,Wunderground v.1.15,2013-05-27 16:19:00,
2013-05-27 11:24:00,61.9,60.7,29.81,NE,46,0.0,2.0,96,0.09,,,2.01,Wunderground v.1.15,2013-05-27 16:24:00,
2013-05-27 11:29:00,61.8,60.6,29.81,ENE,73,2.0,8.0,96,0.09,,,2.01,Wunderground v.1.15,2013-05-27 16:29:00,
2013-05-27 11:34:00,61.8,60.6,29.81,East,94,5.0,5.0,96,0.07,,,2.02,Wunderground v.1.15,2013-05-27 16:34:00,
2013-05-27 11:39:00,61.8,60.6,29.79,SSE,165,2.0,11.0,96,0.07,,,2.02,Wunderground v.1.15,2013-05-27 16:39:00,
2013-05-27 11:44:00,61.9,60.7,29.79,SE,134,3.0,6.0,96,0.05,,,2.02,Wunderground v.1.15,2013-05-27 16:44:00,
2013-05-27 11:49:00,62.0,60.8,29.79,NNE,29,2.0,7.0,96,0.00,,,2.02,Wunderground v.1.15,2013-05-27 16:49:00,
2013-05-27 11:54:00,62.2,61.0,29.79,ENE,68,5.0,8.0,96,0.00,,,2.02,Wunderground v.1.15,2013-05-27 16:54:00,
2013-05-27 11:59:00,62.6,61.7,29.79,SSW,196,4.0,8.0,97,0.00,,,2.02,Wunderground v.1.15,2013-05-27 16:59:00,
2013-05-27 12:04:00,63.1,61.9,29.78,SE,138,5.0,5.0,96,0.00,,,2.02,Wunderground v.1.15,2013-05-27 17:04:00,
2013-05-27 12:09:00,63.4,62.2,29.78,East,88,3.0,10.0,96,0.00,,,2.02,Wunderground v.1.15,2013-05-27 17:09:00,
2013-05-27 12:14:00,63.8,62.6,29.77,SE,133,3.0,7.0,96,0.00,,,2.02,Wunderground v.1.15,2013-05-27 17:14:00,
2013-05-27 12:19:00,64.3,62.8,29.76,SE,144,3.0,8.0,95,0.00,,,2.02,Wunderground v.1.15,2013-05-27 17:19:00,
2013-05-27 12:24:00,64.7,62.9,29.76,WSW,251,4.0,4.0,94,0.00,,,2.02,Wunderground v.1.15,2013-05-27 17:24:00,
2013-05-27 12:29:00,65.1,63.0,29.75,ESE,109,7.0,11.0,93,0.00,,,2.02,Wunderground v.1.15,2013-05-27 17:29:00,
2013-05-27 12:34:00,65.4,63.3,29.75,SSE,147,3.0,7.0,93,0.00,,,2.02,Wunderground v.1.15,2013-05-27 17:34:00,
2013-05-27 12:39:00,66.0,63.9,29.74,South,182,6.0,10.0,93,0.00,,,2.02,Wunderground v.1.15,2013-05-27 17:39:00,
2013-05-27 12:44:00,66.5,63.8,29.74,SSE,158,7.0,7.0,91,0.00,,,2.02,Wunderground v.1.15,2013-05-27 17:44:00,
2013-05-27 12:49:00,67.0,63.6,29.74,West,267,1.0,9.0,89,0.00,,,2.02,Wunderground v.1.15,2013-05-27 17:49:00,
2013-05-27 12:54:00,67.4,63.7,29.73,South,179,3.0,6.0,88,0.00,,,2.02,Wunderground v.1.15,2013-05-27 17:54:00,
2013-05-27 12:59:00,67.9,63.9,29.73,SSE,168,2.0,16.0,87,0.00,,,2.02,Wunderground v.1.15,2013-05-27 17:59:00,
2013-05-27 13:04:00,68.6,64.6,29.73,NW,307,3.0,3.0,87,0.00,,,2.02,Wunderground v.1.15,2013-05-27 18:04:00,
2013-05-27 13:09:00,69.2,64.8,29.73,South,181,4.0,8.0,86,0.00,,,2.02,Wunderground v.1.15,2013-05-27 18:09:00,
2013-05-27 13:14:00,69.5,64.5,29.72,SSW,204,6.0,6.0,84,0.00,,,2.02,Wunderground v.1.15,2013-05-27 18:14:00,
2013-05-27 13:19:00,69.5,64.1,29.72,South,171,5.0,8.0,83,0.00,,,2.02,Wunderground v.1.15,2013-05-27 18:19:00,
2013-05-27 13:24:00,69.4,64.0,29.71,ESE,111,4.0,8.0,83,0.00,,,2.02,Wunderground v.1.15,2013-05-27 18:24:00,
2013-05-27 13:29:00,69.5,64.8,29.71,SE,130,2.0,9.0,85,0.00,,,2.02,Wunderground v.1.15,2013-05-27 18:29:00,
2013-05-27 13:34:00,69.8,64.7,29.71,East,87,7.0,7.0,84,0.00,,,2.02,Wunderground v.1.15,2013-05-27 18:34:00,
2013-05-27 13:39:00,70.2,65.1,29.71,SSE,165,4.0,13.0,84,0.00,,,2.02,Wunderground v.1.15,2013-05-27 18:39:00,
2013-05-27 13:44:00,71.0,65.6,29.70,South,178,3.0,5.0,83,0.00,,,2.02,Wunderground v.1.15,2013-05-27 18:44:00,
2013-05-27 13:49:00,71.2,65.8,29.70,ENE,78,10.0,11.0,83,0.00,,,2.02,Wunderground v.1.15,2013-05-27 18:49:00,
2013-05-27 13:54:00,71.7,66.3,29.69,NE,34,6.0,7.0,83,0.00,,,2.02,Wunderground v.1.15,2013-05-27 18:54:00,
2013-05-27 13:59:00,72.2,66.4,29.69,SE,125,6.0,14.0,82,0.00,,,2.02,Wunderground v.1.15,2013-05-27 18:59:00,
2013-05-27 14:04:00,72.8,67.0,29.69,WSW,243,5.0,10.0,82,0.00,,,2.02,Wunderground v.1.15,2013-05-27 19:04:00,
2013-05-27 14:09:00,73.3,67.5,29.68,South,175,2.0,10.0,82,0.00,,,2.02,Wunderground v.1.15,2013-05-27 19:09:00,
2013-05-27 14:14:00,74.2,68.0,29.68,NE,42,3.0,6.0,81,0.00,,,2.02,Wunderground v.1.15,2013-05-27 19:14:00,
2013-05-27 14:19:00,74.7,67.8,29.68,SE,134,3.0,13.0,79,0.00,,,2.02,Wunderground v.1.15,2013-05-27 19:19:00,
2013-05-27 14:24:00,75.2,68.2,29.68,SSW,200,5.0,5.0,79,0.00,,,2.02,Wunderground v.1.15,2013-05-27 19:24:00,
2013-05-27 14:29:00,75.9,68.2,29.68,SSE,153,3.0,10.0,77,0.00,,,2.02,Wunderground v.1.15,2013-05-27 19:29:00,
2013-05-27 14:34:00,76.1,68.0,29.68,SW,232,6.0,10.0,76,0.00,,,2.02,Wunderground v.1.15,2013-05-27 19:34:00,
2013-05-27 14:39:00,76.0,68.3,29.67,SSW,202,6.0,10.0,77,0.00,,,2.02,Wunderground v.1.15,2013-05-27 19:39:00,
2013-05-27 14:44:00,76.0,67.9,29.67,SE,146,5.0,8.0,76,0.00,,,2.02,Wunderground v.1.15,2013-05-27 19:44:00,
2013-05-27 14:49:00,75.8,67.7,29.67,South,176,5.0,9.0,76,0.00,,,2.02,Wunderground v.1.15,2013-05-27 19:49:00,
2013-05-27 14:54:00,75.9,68.2,29.67,SSE,150,5.0,7.0,77,0.00,,,2.02,Wunderground v.1.15,2013-05-27 19:54:00,
2013-05-27 14:59:00,76.2,68.5,29.67,ESE,120,9.0,10.0,77,0.00,,,2.02,Wunderground v.1.15,2013-05-27 19:59:00,
2013-05-27 15:04:00,76.2,68.5,29.67,South,171,3.0,5.0,77,0.00,,,2.02,Wunderground v.1.15,2013-05-27 20:04:00,
2013-05-27 15:09:00,76.4,69.0,29.66,SSE,155,5.0,6.0,78,0.00,,,2.02,Wunderground v.1.15,2013-05-27 20:09:00,
2013-05-27 15:14:00,76.8,69.0,29.66,SSE,159,3.0,6.0,77,0.00,,,2.02,Wunderground v.1.15,2013-05-27 20:14:00,
2013-05-27 15:19:00,76.9,69.1,29.65,SSE,165,3.0,8.0,77,0.00,,,2.02,Wunderground v.1.15,2013-05-27 20:19:00,
2013-05-27 15:24:00,76.8,69.4,29.65,ESE,114,3.0,5.0,78,0.00,,,2.02,Wunderground v.1.15,2013-05-27 20:24:00,
2013-05-27 15:29:00,76.6,69.2,29.65,SW,234,4.0,9.0,78,0.00,,,2.02,Wunderground v.1.15,2013-05-27 20:29:00,
2013-05-27 15:34:00,76.6,69.2,29.64,SE,146,2.0,4.0,78,0.00,,,2.02,Wunderground v.1.15,2013-05-27 20:34:00,
2013-05-27 15:39:00,76.9,69.9,29.63,SE,126,3.0,7.0,79,0.00,,,2.02,Wunderground v.1.15,2013-05-27 20:39:00,
2013-05-27 15:44:00,77.2,69.8,29.63,South,172,4.0,8.0,78,0.00,,,2.02,Wunderground v.1.15,2013-05-27 20:44:00,
2013-05-27 15:49:00,77.4,70.0,29.63,SE,128,3.0,8.0,78,0.00,,,2.02,Wunderground v.1.15,2013-05-27 20:49:00,
2013-05-27 15:54:00,77.8,70.4,29.62,NE,37,1.0,4.0,78,0.00,,,2.02,Wunderground v.1.15,2013-05-27 20:54:00,
2013-05-27 15:59:00,78.2,70.4,29.62,ESE,120,1.0,7.0,77,0.00,,,2.02,Wunderground v.1.15,2013-05-27 20:59:00,
2013-05-27 16:04:00,78.2,70.4,29.62,SSW,200,3.0,5.0,77,0.00,,,2.02,Wunderground v.1.15,2013-05-27 21:04:00,
2013-05-27 16:09:00,78.3,70.9,29.62,SSW,198,2.0,5.0,78,0.00,,,2.02,Wunderground v.1.15,2013-05-27 21:09:00,
2013-05-27 16:14:00,78.6,71.2,29.61,SSW,209,1.0,2.0,78,0.00,,,2.02,Wunderground v.1.15,2013-05-27 21:14:00,
2013-05-27 16:19:00,78.9,71.5,29.61,SSW,206,2.0,5.0,78,0.00,,,2.02,Wunderground v.1.15,2013-05-27 21:19:00,
2013-05-27 16:24:00,79.2,71.4,29.61,SSE,157,3.0,3.0,77,0.00,,,2.02,Wunderground v.1.15,2013-05-27 21:24:00,
2013-05-27 16:29:00,79.2,71.4,29.61,SE,130,2.0,9.0,77,0.00,,,2.02,Wunderground v.1.15,2013-05-27 21:29:00,
2013-05-27 16:34:00,79.3,71.8,29.61,SE,146,3.0,3.0,78,0.00,,,2.02,Wunderground v.1.15,2013-05-27 21:34:00,
2013-05-27 16:39:00,79.6,71.8,29.61,SE,144,2.0,5.0,77,0.00,,,2.02,Wunderground v.1.15,2013-05-27 21:39:00,
2013-05-27 16:44:00,79.8,72.3,29.61,SE,137,1.0,4.0,78,0.00,,,2.02,Wunderground v.1.15,2013-05-27 21:44:00,
2013-05-27 16:49:00,80.1,71.5,29.61,SSE,161,2.0,9.0,75,0.00,,,2.02,Wunderground v.1.15,2013-05-27 21:49:00,
2013-05-27 16:54:00,80.6,71.5,29.61,South,169,6.0,6.0,74,0.00,,,2.02,Wunderground v.1.15,2013-05-27 21:54:00,
2013-05-27 16:59:00,81.1,71.6,29.61,SSE,166,2.0,8.0,73,0.00,,,2.02,Wunderground v.1.15,2013-05-27 21:59:00,
2013-05-27 17:04:00,81.1,71.6,29.61,South,178,2.0,6.0,73,0.00,,,2.02,Wunderground v.1.15,2013-05-27 22:04:00,
2013-05-27 17:09:00,81.1,71.6,29.61,SSE,157,3.0,8.0,73,0.00,,,2.02,Wunderground v.1.15,2013-05-27 22:09:00,
2013-05-27 17:14:00,81.1,71.6,29.60,ESE,123,4.0,7.0,73,0.00,,,2.02,Wunderground v.1.15,2013-05-27 22:14:00,
2013-05-27 17:19:00,81.2,71.3,29.60,SSE,161,3.0,10.0,72,0.00,,,2.02,Wunderground v.1.15,2013-05-27 22:19:00,
2013-05-27 17:24:00,81.3,71.0,29.60,SSE,164,2.0,4.0,71,0.00,,,2.02,Wunderground v.1.15,2013-05-27 22:24:00,
2013-05-27 17:29:00,81.3,71.0,29.60,SSW,196,5.0,8.0,71,0.00,,,2.02,Wunderground v.1.15,2013-05-27 22:29:00,
2013-05-27 17:34:00,81.3,71.0,29.60,SE,137,2.0,4.0,71,0.00,,,2.02,Wunderground v.1.15,2013-05-27 22:34:00,
2013-05-27 17:39:00,81.3,71.0,29.60,SSE,160,5.0,14.0,71,0.00,,,2.02,Wunderground v.1.15,2013-05-27 22:39:00,
2013-05-27 17:44:00,81.4,71.1,29.60,SE,143,3.0,4.0,71,0.00,,,2.02,Wunderground v.1.15,2013-05-27 22:44:00,
2013-05-27 17:49:00,81.4,71.1,29.59,SSE,155,7.0,11.0,71,0.00,,,2.02,Wunderground v.1.15,2013-05-27 22:49:00,
2013-05-27 17:54:00,81.5,71.2,29.59,West,281,1.0,4.0,71,0.00,,,2.02,Wunderground v.1.15,2013-05-27 22:54:00,
2013-05-27 17:59:00,81.5,71.2,29.59,SE,138,2.0,8.0,71,0.00,,,2.02,Wunderground v.1.15,2013-05-27 22:59:00,
2013-05-27 18:04:00,81.4,71.1,29.59,NNW,328,2.0,3.0,71,0.00,,,2.02,Wunderground v.1.15,2013-05-27 23:04:00,
2013-05-27 18:09:00,81.3,70.6,29.58,WSW,257,4.0,10.0,70,0.00,,,2.02,Wunderground v.1.15,2013-05-27 23:09:00,
2013-05-27 18:14:00,81.3,70.2,29.59,SSE,165,5.0,7.0,69,0.00,,,2.02,Wunderground v.1.15,2013-05-27 23:14:00,
2013-05-27 18:19:00,81.3,70.6,29.59,SSE,163,6.0,11.0,70,0.00,,,2.02,Wunderground v.1.15,2013-05-27 23:19:00,
2013-05-27 18:24:00,81.2,70.5,29.59,NNE,28,6.0,6.0,70,0.00,,,2.02,Wunderground v.1.15,2013-05-27 23:24:00,
2013-05-27 18:29:00,81.1,70.0,29.58,SSE,148,7.0,10.0,69,0.00,,,2.02,Wunderground v.1.15,2013-05-27 23:29:00,
2013-05-27 18:34:00,81.1,70.4,29.58,SSE,151,4.0,5.0,70,0.00,,,2.02,Wunderground v.1.15,2013-05-27 23:34:00,
2013-05-27 18:39:00,81.1,70.4,29.58,SSE,168,3.0,9.0,70,0.00,,,2.02,Wunderground v.1.15,2013-05-27 23:39:00,
2013-05-27 18:44:00,81.0,70.3,29.57,SSW,207,2.0,4.0,70,0.00,,,2.02,Wunderground v.1.15,2013-05-27 23:44:00,
2013-05-27 18:49:00,80.9,70.6,29.57,SE,143,6.0,6.0,71,0.00,,,2.02,Wunderground v.1.15,2013-05-27 23:49:00,
2013-05-27 18:54:00,80.8,70.5,29.56,WSW,237,2.0,7.0,71,0.00,,,2.02,Wunderground v.1.15,2013-05-27 23:54:00,
2013-05-27 18:59:00,80.7,70.4,29.57,SSE,151,2.0,10.0,71,0.00,,,2.02,Wunderground v.1.15,2013-05-27 23:59:00,
2013-05-27 19:04:00,80.7,70.4,29.57,SW,230,3.0,5.0,71,0.00,,,2.02,Wunderground v.1.15,2013-05-28 00:04:00,
2013-05-27 19:09:00,80.7,70.4,29.57,South,169,5.0,10.0,71,0.00,,,2.02,Wunderground v.1.15,2013-05-28 00:09:00,
2013-05-27 19:14:00,80.6,70.3,29.57,SSW,213,4.0,8.0,71,0.00,,,2.02,Wunderground v.1.15,2013-05-28 00:14:00,
2013-05-27 19:19:00,80.5,70.6,29.57,SE,143,3.0,8.0,72,0.00,,,2.02,Wunderground v.1.15,2013-05-28 00:19:00,
2013-05-27 19:24:00,80.3,69.2,29.58,ESE,111,4.0,5.0,69,0.00,,,2.02,Wunderground v.1.15,2013-05-28 00:24:00,
2013-05-27 19:29:00,80.2,68.7,29.58,NE,36,2.0,10.0,68,0.00,,,2.02,Wunderground v.1.15,2013-05-28 00:29:00,
2013-05-27 19:34:00,80.0,68.5,29.59,SSW,194,1.0,4.0,68,0.00,,,2.02,Wunderground v.1.15,2013-05-28 00:34:00,
2013-05-27 19:39:00,79.8,68.3,29.59,SSE,165,4.0,9.0,68,0.00,,,2.02,Wunderground v.1.15,2013-05-28 00:39:00,
2013-05-27 19:44:00,79.6,68.5,29.59,WSW,252,2.0,4.0,69,0.00,,,2.02,Wunderground v.1.15,2013-05-28 00:44:00,
2013-05-27 19:49:00,79.4,68.3,29.59,SE,126,3.0,10.0,69,0.00,,,2.02,Wunderground v.1.15,2013-05-28 00:49:00,
2013-05-27 19:54:00,79.1,68.1,29.59,South,177,3.0,4.0,69,0.00,,,2.02,Wunderground v.1.15,2013-05-28 00:54:00,
2013-05-27 19:59:00,78.9,67.9,29.59,SE,126,8.0,8.0,69,0.00,,,2.02,Wunderground v.1.15,2013-05-28 00:59:00,
2013-05-27 20:04:00,78.7,67.7,29.59,SE,137,4.0,4.0,69,0.00,,,2.02,Wunderground v.1.15,2013-05-28 01:04:00,
2013-05-27 20:09:00,78.5,67.9,29.59,SE,129,7.0,8.0,70,0.00,,,2.02,Wunderground v.1.15,2013-05-28 01:09:00,
2013-05-27 20:14:00,78.3,67.7,29.59,SSE,148,4.0,9.0,70,0.00,,,2.02,Wunderground v.1.15,2013-05-28 01:14:00,
2013-05-27 20:19:00,78.2,67.6,29.58,SSE,154,6.0,12.0,70,0.00,,,2.02,Wunderground v.1.15,2013-05-28 01:19:00,
2013-05-27 20:24:00,78.1,67.5,29.58,SSE,148,8.0,11.0,70,0.00,,,2.02,Wunderground v.1.15,2013-05-28 01:24:00,
2013-05-27 20:29:00,78.0,67.4,29.59,ESE,123,5.0,11.0,70,0.00,,,2.02,Wunderground v.1.15,2013-05-28 01:29:00,
2013-05-27 20:34:00,78.0,67.4,29.59,NNE,32,2.0,5.0,70,0.00,,,2.02,Wunderground v.1.15,2013-05-28 01:34:00,
2013-05-27 20:39:00,77.9,67.3,29.58,ENE,73,8.0,10.0,70,0.00,,,2.02,Wunderground v.1.15,2013-05-28 01:39:00,
2013-05-27 20:44:00,77.8,67.2,29.57,South,173,7.0,11.0,70,0.00,,,2.02,Wunderground v.1.15,2013-05-28 01:44:00,
2013-05-27 20:49:00,77.7,67.1,29.57,West,269,5.0,16.0,70,0.00,,,2.02,Wunderground v.1.15,2013-05-28 01:49:00,
2013-05-27 20:54:00,77.6,67.0,29.56,SE,143,6.0,6.0,70,0.00,,,2.02,Wunderground v.1.15,2013-05-28 01:54:00,
2013-05-27 20:59:00,77.5,66.9,29.57,SSE,160,4.0,12.0,70,0.00,,,2.02,Wunderground v.1.15,2013-05-28 01:59:00,
2013-05-27 21:04:00,77.3,66.7,29.57,SSW,194,4.0,5.0,70,0.00,,,2.02,Wunderground v.1.15,2013-05-28 02:04:00,
2013-05-27 21:09:00,77.2,66.7,29.57,ESE,118,3.0,11.0,70,0.00,,,2.02,Wunderground v.1.15,2013-05-28 02:09:00,
2013-05-27 21:14:00,77.1,67.0,29.58,South,171,4.0,5.0,71,0.00,,,2.02,Wunderground v.1.15,2013-05-28 02:14:00,
2013-05-27 21:20:00,76.9,67.2,29.58,SSE,147,4.0,11.0,72,0.00,,,2.02,Wunderground v.1.15,2013-05-28 02:20:00,
2013-05-27 21:25:00,76.8,67.1,29.58,SSW,211,5.0,6.0,72,0.00,,,2.02,Wunderground v.1.15,2013-05-28 02:25:00,
2013-05-27 21:30:00,76.8,67.5,29.58,WNW,285,4.0,8.0,73,0.00,,,2.02,Wunderground v.1.15,2013-05-28 02:30:00,
2013-05-27 21:35:00,76.7,67.4,29.59,SSE,165,3.0,8.0,73,0.00,,,2.02,Wunderground v.1.15,2013-05-28 02:35:00,
2013-05-27 21:40:00,76.7,67.8,29.59,SSE,150,2.0,8.0,74,0.00,,,2.02,Wunderground v.1.15,2013-05-28 02:40:00,
2013-05-27 21:45:00,76.6,67.7,29.60,ESE,109,2.0,7.0,74,0.00,,,2.02,Wunderground v.1.15,2013-05-28 02:45:00,
2013-05-27 21:50:00,76.5,68.0,29.59,SSE,155,3.0,7.0,75,0.00,,,2.02,Wunderground v.1.15,2013-05-28 02:50:00,
2013-05-27 21:55:00,76.3,67.8,29.59,SSE,155,3.0,8.0,75,0.00,,,2.02,Wunderground v.1.15,2013-05-28 02:55:00,
2013-05-27 22:00:00,76.2,67.7,29.59,WSW,244,3.0,10.0,75,0.00,,,2.02,Wunderground v.1.15,2013-05-28 03:00:00,
2013-05-27 22:05:00,76.2,67.7,29.59,SSW,194,6.0,6.0,75,0.00,,,2.02,Wunderground v.1.15,2013-05-28 03:05:00,
2013-05-27 22:10:00,76.1,67.6,29.60,East,90,5.0,9.0,75,0.00,,,2.02,Wunderground v.1.15,2013-05-28 03:10:00,
2013-05-27 22:15:00,76.1,67.6,29.61,ESE,106,5.0,11.0,75,0.00,,,2.02,Wunderground v.1.15,2013-05-28 03:15:00,
2013-05-27 22:20:00,76.2,67.7,29.61,South,175,6.0,11.0,75,0.00,,,2.02,Wunderground v.1.15,2013-05-28 03:20:00,
2013-05-27 22:25:00,76.2,67.7,29.60,South,169,1.0,4.0,75,0.00,,,2.02,Wunderground v.1.15,2013-05-28 03:25:00,
2013-05-27 22:30:00,76.3,67.4,29.60,SSE,162,5.0,9.0,74,0.00,,,2.02,Wunderground v.1.15,2013-05-28 03:30:00,
2013-05-27 22:35:00,76.4,67.5,29.59,ENE,66,9.0,13.0,74,0.00,,,2.02,Wunderground v.1.15,2013-05-28 03:35:00,
2013-05-27 22:40:00,76.4,67.5,29.59,West,268,3.0,13.0,74,0.00,,,2.02,Wunderground v.1.15,2013-05-28 03:40:00,
2013-05-27 22:45:00,76.4,67.5,29.59,SSE,148,3.0,8.0,74,0.00,,,2.02,Wunderground v.1.15,2013-05-28 03:45:00,
2013-05-27 22:50:00,76.4,67.5,29.59,East,100,9.0,10.0,74,0.00,,,2.02,Wunderground v.1.15,2013-05-28 03:50:00,
2013-05-27 22:55:00,76.3,67.4,29.59,WSW,251,2.0,6.0,74,0.00,,,2.02,Wunderground v.1.15,2013-05-28 03:55:00,
2013-05-27 23:00:00,76.2,67.3,29.59,South,183,2.0,13.0,74,0.00,,,2.02,Wunderground v.1.15,2013-05-28 04:00:00,
2013-05-27 23:01:00,76.2,67.3,29.59,ENE,74,4.0,13.0,74,0.00,,,2.02,Wunderground v.1.15,2013-05-28 04:01:00,
2013-05-27 23:06:00,76.1,67.2,29.59,SSE,168,3.0,10.0,74,0.00,,,2.02,Wunderground v.1.15,2013-05-28 04:06:00,
2013-05-27 23:11:00,76.0,67.1,29.59,West,277,3.0,10.0,74,0.00,,,2.02,Wunderground v.1.15,2013-05-28 04:11:00,
2013-05-27 23:16:00,75.9,67.4,29.58,South,191,6.0,9.0,75,0.00,,,2.02,Wunderground v.1.15,2013-05-28 04:16:00,
2013-05-27 23:21:00,75.8,67.3,29.58,SSE,149,6.0,14.0,75,0.00,,,2.02,Wunderground v.1.15,2013-05-28 04:21:00,
2013-05-27 23:26:00,75.8,67.3,29.58,South,171,2.0,8.0,75,0.00,,,2.02,Wunderground v.1.15,2013-05-28 04:26:00,
2013-05-27 23:31:00,75.7,67.2,29.58,SW,236,4.0,9.0,75,0.00,,,2.02,Wunderground v.1.15,2013-05-28 04:31:00,
2013-05-27 23:36:00,75.7,67.2,29.59,SSE,159,1.0,5.0,75,0.00,,,2.02,Wunderground v.1.15,2013-05-28 04:36:00,
2013-05-27 23:41:00,75.6,67.1,29.60,West,271,1.0,6.0,75,0.00,,,2.02,Wunderground v.1.15,2013-05-28 04:41:00,
2013-05-27 23:46:00,75.6,67.5,29.60,NW,325,0.0,6.0,76,0.00,,,2.02,Wunderground v.1.15,2013-05-28 04:46:00,
2013-05-27 23:51:00,75.6,67.5,29.60,NW,325,1.0,6.0,76,0.00,,,2.02,Wunderground v.1.15,2013-05-28 04:51:00,
2013-05-27 23:56:00,75.5,67.4,29.60,NW,325,0.0,2.0,76,0.00,,,2.02,Wunderground v.1.15,2013-05-28 04:56:00,